Location: Cella
(44.7333°N, 10.5667°E)
Time: 08:48:41
(UTC+00:00)

NOSS 3-3 (A) - Pass Details

Date: 03 March 2021
Orbit: 815 x 1397 km, 63.4° (Epoch: 15 April)

Event Time Altitude Azimuth Distance (km) Brightness Sun altitude
Rises 20:08:58 0° 322° (NW) 3,967 8.1 -32.1°
Reaches altitude 10° 20:11:32 10° 324° (NW) 3,084 7.3 -32.5°
Enters shadow 20:18:47 79° 21° (NNE) 1,302 4.4 -33.7°
